Weather History for Avoca, PA

Change the Weather History Date:

Friday, November 23, 2012

  Actual Average Record
Temperature  
Mean Temperature 45 °F 39 °F  
Max Temperature 61 °F 46 °F 72 °F (1931)
Min Temperature 29 °F 31 °F 13 °F (1972)
Degree Days  
Heating Degree Days 20 26  
Month to date heating degree days 552 515  
Since 1 July heating degree days 1010 1118  
Cooling Degree Days 0 0  
Month to date cooling degree days 0 0  
Year to date cooling degree days 864 580  
Moisture  
Dew Point 32 °F    
Average Humidity 64    
Maximum Humidity 92    
Minimum Humidity 35    
Precipitation  
Precipitation T in 0.10 in 1.03 in (2006)
Month to date precipitation 0.84 2.40  
Year to date precipitation 33.92 34.84  
Sea Level Pressure  
Sea Level Pressure 29.87 in    
Wind  
Wind Speed 5 mph (SW)    
Max Wind Speed 23 mph    
Max Gust Speed 32 mph    
Visibility 9 miles    
Events Rain    
T = Trace of Precipitation, MM = Missing Value Source: NWS Daily Summary

Daily Weather History Graph

Daily Weather History Graph

Search for Another Location

Airport:

Trip Planner

Search our weather history database for the weather conditions in past years. The results will help you decide how hot, cold, wet, or windy it might be!

Date:

Astronomy

Nov. 23, 2012 Rise Set
Actual Time 7:01 AM EST 4:37 PM EST
Civil Twilight 6:30 AM EST 5:07 PM EST
Nautical Twilight 5:56 AM EST 5:41 PM EST
Astronomical Twilight 5:23 AM EST 6:14 PM EST
Moon 1:53 PM EST (11/23) 2:15 AM EST (11/23)
Length of Visible Light 10h 36m
Length of Day
9h 36m
Waxing Gibbous, 79% of the Moon is Illuminated
Nov 23
Waxing Gibbous
Nov 28
Full
Dec 6
Last Quarter
Dec 13
New
Dec 20
First Quarter

Hourly Weather History & Observations

Time (EST) Temp. Windchill Dew Point Humidity Pressure Visibility Wind Dir Wind Speed Gust Speed Precip Events Conditions
12:54 AM 34.0 °F 29.8 °F 26.1 °F 73% 30.09 in 10.0 mi ESE 4.6 mph - N/A   Clear
1:54 AM 30.9 °F 26.2 °F 26.1 °F 82% 30.08 in 10.0 mi East 4.6 mph - N/A   Clear
2:54 AM 30.9 °F - 26.1 °F 82% 30.08 in 10.0 mi Calm Calm - N/A   Clear
3:54 AM 30.9 °F - 26.1 °F 82% 30.06 in 10.0 mi Calm Calm - N/A   Clear
4:54 AM 30.9 °F - 26.1 °F 82% 30.04 in 10.0 mi Calm Calm - N/A   Clear
5:54 AM 30.0 °F - 26.1 °F 85% 30.01 in 8.0 mi Calm Calm - N/A   Clear
6:54 AM 30.0 °F - 26.1 °F 85% 30.00 in 8.0 mi Calm Calm - N/A   Clear
7:54 AM 28.9 °F - 26.1 °F 89% 29.99 in 6.0 mi Calm Calm - N/A   Clear
8:54 AM 42.1 °F - 32.0 °F 67% 29.95 in 10.0 mi Calm Calm - N/A   Clear
9:54 AM 39.9 °F - 30.9 °F 70% 29.94 in 8.0 mi Calm Calm - N/A   Clear
10:54 AM 46.0 °F 43.9 °F 30.0 °F 54% 29.90 in 10.0 mi NW 4.6 mph - N/A   Clear
11:54 AM 48.9 °F - 30.0 °F 48% 29.83 in 10.0 mi NW 4.6 mph - N/A   Clear
12:54 PM 55.9 °F - 30.9 °F 39% 29.78 in 10.0 mi Variable 3.5 mph - N/A   Clear
1:54 PM 60.1 °F - 32.0 °F 35% 29.75 in 10.0 mi SSW 11.5 mph 21.9 mph N/A   Mostly Cloudy
2:54 PM 59.0 °F - 33.1 °F 38% 29.74 in 10.0 mi SW 9.2 mph 17.3 mph N/A   Mostly Cloudy
3:54 PM 57.0 °F - 34.0 °F 42% 29.75 in 10.0 mi SW 5.8 mph - 0.00 in Rain Light Rain
4:54 PM 51.1 °F - 39.9 °F 66% 29.76 in 10.0 mi SSW 4.6 mph - 0.00 in Rain Light Rain
5:54 PM 48.9 °F - 41.0 °F 74% 29.76 in 10.0 mi SW 3.5 mph - 0.00 in Rain Light Rain
6:27 PM 48.2 °F - 39.2 °F 71% 29.74 in 9.0 mi South 4.6 mph - 0.00 in   Overcast
6:54 PM 48.9 °F - 37.9 °F 66% 29.75 in 10.0 mi SSW 5.8 mph - 0.00 in   Overcast
7:54 PM 48.0 °F - 39.0 °F 71% 29.74 in 9.0 mi SW 4.6 mph - N/A   Overcast
8:15 PM 46.4 °F 43.5 °F 39.2 °F 76% 29.72 in 9.0 mi SW 5.8 mph - N/A   Mostly Cloudy
8:54 PM 45.0 °F 43.5 °F 39.0 °F 80% 29.72 in 8.0 mi SSW 3.5 mph - N/A   Clear
9:54 PM 46.0 °F 39.9 °F 37.0 °F 71% 29.72 in 10.0 mi WSW 13.8 mph 19.6 mph N/A   Partly Cloudy
10:54 PM 43.0 °F 37.2 °F 30.9 °F 62% 29.73 in 10.0 mi WSW 10.4 mph 19.6 mph N/A   Scattered Clouds
11:54 PM 42.1 °F 32.8 °F 26.1 °F 53% 29.73 in 10.0 mi West 21.9 mph 31.1 mph N/A   Mostly Cloudy